IZ1DSJ Weather Reports


Display with metric or nautical units.
time (UTC)temp
F
wind
direction
speed
MPH
gust
MPH
rain 1hr
in
rain 24hr
in
rain mn
in
humidity
%
barometer
mb
20260507052516 46 0.0 0.0 0.00 0.00 0.00 81 1010.1
20260507051516 46 0.0 0.0 0.00 0.00 0.00 81 1010.1
20260507050516 46 0.0 0.0 0.00 0.00 0.00 81 1010.0
20260507045536 46 0.0 0.0 0.00 0.00 0.00 81 1009.8
20260507044515 46 0.0 0.0 0.00 0.00 0.00 81 1009.7
20260507043516 46 0.0 0.0 0.00 0.00 0.00 81 1009.6
20260507042516 46 0.0 0.0 0.00 0.00 0.00 81 1009.5
20260507041516 46 0.0 0.0 0.00 0.00 0.00 81 1009.3
20260507040516 46 0.0 0.0 0.00 0.00 0.00 81 1009.2
20260507035536 46 0.0 0.0 0.00 0.00 0.00 81 1009.2
20260507034516 47 0.0 0.0 0.00 0.00 0.00 81 1009.1
20260507033516 47 0.0 0.0 0.00 0.00 0.00 81 1009.0
20260507032516 47 0.0 0.0 0.00 0.00 0.00 81 1009.0
20260507031516 48 0.0 0.0 0.00 0.00 0.00 81 1009.0
20260507030516 48 0.0 0.0 0.00 0.00 0.00 81 1009.1
20260507025515 48 0.0 0.0 0.00 0.00 0.00 81 1009.1
20260507024515 48 0.0 0.0 0.00 0.00 0.00 81 1009.2
20260507023516 48 0.0 0.0 0.00 0.00 0.00 81 1009.3
20260507022516 48 0.0 0.0 0.00 0.00 0.00 81 1009.3
20260507021535 48 0.0 0.0 0.00 0.00 0.00 81 1009.2
20260507020537 49 0.0 0.0 0.00 0.00 0.00 81 1009.1
20260507015516 49 0.0 0.0 0.00 0.00 0.00 81 1009.3
20260507014515 49 0.0 0.0 0.00 0.00 0.00 81 1009.2
20260507013516 49 0.0 0.0 0.00 0.00 0.00 81 1009.1
20260507012536 49 0.0 0.0 0.00 0.00 0.00 81 1009.2
20260507011516 49 0.0 0.0 0.00 0.00 0.00 81 1009.2
20260507010515 49 0.0 0.0 0.00 0.00 0.00 81 1009.2
20260507005515 49 0.0 0.0 0.00 0.00 0.00 81 1009.0
20260507004515 49 0.0 0.0 0.00 0.00 0.00 81 1009.0
20260507003517 49 0.0 0.0 0.00 0.00 0.00 81 1008.9
20260507002517 49 0.0 0.0 0.00 0.00 0.00 81 1008.9
20260507001517 49 0.0 0.0 0.00 0.00 0.00 81 1008.9
20260507000517 49 0.0 0.0 0.00 0.00 0.00 81 1008.8
20260506235517 49 0.0 0.0 0.00 0.00 0.00 81 1008.7
20260506234519 50 0.0 0.0 0.00 0.00 0.00 81 1008.4
20260506233517 50 0.0 0.0 0.00 0.00 0.00 81 1008.4
20260506232518 50 0.0 0.0 0.00 0.00 0.00 81 1008.5
20260506231538 50 0.0 0.0 0.00 0.00 0.00 81 1008.5
20260506230538 50 0.0 0.0 0.00 0.00 0.00 80 1008.3
20260506225517 51 0.0 0.0 0.00 0.00 0.00 81 1008.4
20260506224517 51 0.0 0.0 0.00 0.00 0.00 80 1008.3
20260506223517 51 0.0 0.0 0.00 0.00 0.00 80 1008.3
20260506222538 52 0.0 0.0 0.00 0.00 0.00 80 1008.3
20260506221517 52 0.0 0.0 0.00 0.00 0.00 80 1008.4
20260506220517 52 0.0 0.0 0.00 0.00 0.00 80 1008.5
20260506215517 52 0.0 0.0 0.00 0.00 0.00 80 1008.4
20260506214517 52 0.0 0.0 0.00 0.00 0.00 80 1008.4
20260506213517 52 0.0 0.0 0.00 0.00 0.00 80 1008.3
20260506212517 52 0.0 0.0 0.00 0.00 0.00 80 1008.1
20260506211537 52 0.0 0.0 0.00 0.00 0.00 80 1008.0
20260506210517 52 0.0 0.0 0.00 0.00 0.00 80 1008.2
20260506205537 52 0.0 0.0 0.00 0.00 0.00 80 1008.0
20260506204517 52 0.0 0.0 0.00 0.00 0.00 80 1007.8
20260506203517 52 0.0 0.0 0.00 0.00 0.00 80 1007.6
20260506202537 53 0.0 0.0 0.00 0.00 0.00 80 1007.6
20260506201516 53 0.0 0.0 0.00 0.00 0.00 80 1007.6
20260506200517 53 0.0 0.0 0.00 0.00 0.00 80 1007.5
20260506195517 53 0.0 0.0 0.00 0.00 0.00 80 1007.3
20260506194517 53 0.0 0.0 0.00 0.00 0.00 80 1006.9
20260506193517 53 0.0 0.0 0.00 0.00 0.00 80 1006.7
20260506192516 53 0.0 0.0 0.00 0.00 0.00 80 1006.6
20260506191517 54 0.0 0.0 0.00 0.00 0.00 80 1006.6
20260506190517 54 0.0 0.0 0.00 0.00 0.00 80 1006.4
20260506185517 55 0.0 0.0 0.00 0.00 0.00 80 1006.2
20260506184516 56 0.0 0.0 0.00 0.00 0.00 80 1005.9
20260506183517 56 0.0 0.0 0.00 0.00 0.00 79 1005.8
20260506182517 57 0.0 0.0 0.00 0.00 0.00 79 1005.5
20260506181516 57 0.0 0.0 0.00 0.00 0.00 78 1005.3
20260506180517 57 0.0 0.0 0.00 0.00 0.00 76 1005.2
20260506175536 58 0.0 0.0 0.00 0.00 0.00 75 1005.2
20260506174537 58 0.0 0.0 0.00 0.00 0.00 76 1004.9
20260506173518 57 0.0 0.0 0.00 0.00 0.00 77 1004.8
20260506172516 57 0.0 0.0 0.00 0.00 0.00 77 1004.5
20260506171516 58 0.0 0.0 0.00 0.00 0.00 76 1004.4
20260506170516 59 0.0 0.0 0.00 0.00 0.00 74 1004.3
20260506165517 61 0.0 0.0 0.00 0.00 0.00 71 1004.1
20260506164516 61 0.0 0.0 0.00 0.00 0.00 70 1003.8
20260506163517 61 0.0 0.0 0.00 0.00 0.00 71 1003.7
20260506162516 61 0.0 0.0 0.00 0.00 0.00 70 1003.7
20260506161517 61 0.0 0.0 0.00 0.00 0.00 74 1003.7
20260506160516 60 0.0 0.0 0.00 0.00 0.00 77 1003.7
20260506155516 59 0.0 0.0 0.00 0.00 0.00 78 1003.7
20260506154516 58 0.0 0.0 0.00 0.00 0.00 79 1003.9
20260506153516 58 0.0 0.0 0.00 0.00 0.00 78 1004.4
20260506152517 58 0.0 0.0 0.00 0.00 0.00 77 1004.6
20260506151517 59 0.0 0.0 0.00 0.00 0.00 77 1004.8
20260506150516 59 0.0 0.0 0.00 0.00 0.00 75 1004.7
20260506145516 59 0.0 0.0 0.00 0.00 0.00 75 1004.8
20260506144517 60 0.0 0.0 0.00 0.00 0.00 73 1004.6
20260506143539 60 0.0 0.0 0.00 0.00 0.00 75 1004.5
20260506142517 60 0.0 0.0 0.00 0.00 0.00 78 1004.6
20260506141517 59 0.0 0.0 0.00 0.00 0.00 78 1004.6
20260506140516 60 0.0 0.0 0.00 0.00 0.00 78 1004.9
20260506135536 60 0.0 0.0 0.00 0.00 0.00 76 1004.9
20260506134516 61 0.0 0.0 0.00 0.00 0.00 73 1004.8
20260506133516 61 0.0 0.0 0.00 0.00 0.00 69 1004.9
20260506132516 62 0.0 0.0 0.00 0.00 0.00 69 1004.6
20260506131517 63 0.0 0.0 0.00 0.00 0.00 65 1004.6
20260506130516 63 0.0 0.0 0.00 0.00 0.00 65 1004.7
20260506125516 63 0.0 0.0 0.00 0.00 0.00 66 1004.7
20260506124516 63 0.0 0.0 0.00 0.00 0.00 67 1004.8
20260506123516 63 0.0 0.0 0.00 0.00 0.00 67 1004.8
20260506122536 62 0.0 0.0 0.00 0.00 0.00 68 1004.9
20260506121516 62 0.0 0.0 0.00 0.00 0.00 67 1004.9
20260506120536 61 0.0 0.0 0.00 0.00 0.00 68 1004.8
20260506115516 61 0.0 0.0 0.00 0.00 0.00 69 1004.9
20260506114517 60 0.0 0.0 0.00 0.00 0.00 69 1004.8
20260506113517 59 0.0 0.0 0.00 0.00 0.00 71 1004.8
20260506112517 59 0.0 0.0 0.00 0.00 0.00 71 1004.9
20260506111537 58 0.0 0.0 0.00 0.00 0.00 73 1004.9
20260506110517 57 0.0 0.0 0.00 0.00 0.00 76 1004.9
20260506105537 56 0.0 0.0 0.00 0.00 0.00 75 1004.9
20260506104516 56 0.0 0.0 0.00 0.00 0.00 76 1005.1
20260506103516 55 0.0 0.0 0.00 0.00 0.00 75 1005.0
20260506102516 55 0.0 0.0 0.00 0.00 0.00 76 1004.9
20260506101516 54 0.0 0.0 0.00 0.00 0.00 77 1004.9
20260506100516 54 0.0 0.0 0.00 0.00 0.00 78 1005.0
20260506095516 54 0.0 0.0 0.00 0.00 0.00 79 1005.0
20260506094516 53 0.0 0.0 0.00 0.00 0.00 80 1005.0
20260506093516 51 0.0 0.0 0.00 0.00 0.00 81 1005.1
20260506092516 50 0.0 0.0 0.00 0.00 0.00 81 1005.2
20260506091516 49 0.0 0.0 0.00 0.00 0.00 81 1005.4
20260506090516 49 0.0 0.0 0.00 0.00 0.00 81 1005.6
20260506085516 49 0.0 0.0 0.00 0.00 0.00 81 1005.8
20260506084516 49 0.0 0.0 0.00 0.00 0.00 81 1005.8
20260506083516 49 0.0 0.0 0.00 0.00 0.00 81 1005.9
20260506082516 50 0.0 0.0 0.00 0.00 0.00 81 1005.9
20260506081516 50 0.0 0.0 0.00 0.00 0.00 81 1005.9
20260506080516 50 0.0 0.0 0.00 0.00 0.00 81 1005.9
20260506073516 50 0.0 0.0 0.00 0.00 0.00 81 1005.9
20260506072516 49 0.0 0.0 0.00 0.00 0.00 81 1005.8
20260506071516 49 0.0 0.0 0.00 0.00 0.00 81 1005.8
20260506070535 49 0.0 0.0 0.00 0.00 0.00 81 1005.9
20260506062515 49 0.0 0.0 0.00 0.00 0.00 81 1006.1
20260506061515 49 0.0 0.0 0.00 0.00 0.00 81 1006.0
20260506060516 49 0.0 0.0 0.00 0.00 0.00 81 1005.9